VAXJO current weather conditions

sailwx.info

Wind from 260 at 7 knots

Air temperature -1.0° C
Visibility: greater than 5.4 NM
Dewpoint -2.0° C

Last reported at 2015-Feb-01 15:20 UTC.
Time now 2015-Feb-01 16:46 UTC

Location: N 56°51' E 014°50'.
View on Google Maps.

See reports from other nearby stations

  
Tides and Currents Weather Stations Pressure Air Temp Water Temp Dewpoint Dewpoint Depression Visibility Wind Speed Wind Dir Waves Ship Positions
date/time (UTC)wind fromknots sea level pressurealtimeterstation pressurevisibilityair tempwater tempwave heightnotes
2015-Feb-01 15:20 260 7 5.4-1.0
2015-Feb-01 14:50 250 8 5.4-1.0
2015-Feb-01 14:20 250 7 3.2-1.0 Light snow.
2015-Feb-01 13:50 250 8 5.4-1.0
2015-Feb-01 13:20 260 7 3.2-1.0 Light snow.
2015-Feb-01 12:50 260 8 3.8-1.0 Light snow.
2015-Feb-01 12:20 260 10 5.4-1.0
2015-Feb-01 11:50 260 8 3.8-1.0 Light snow.
2015-Feb-01 11:20 250 8 1.1-1.0 Light freezing drizzle.
2015-Feb-01 10:50 260 8 2.7-1.0 Light freezing rain.
2015-Feb-01 10:20 260 9 2.6-1.0 Heavy freezing rain.
2015-Feb-01 09:50 250 8 5.4-1.0
2015-Feb-01 09:20 250 8 5.4-1.0
2015-Feb-01 08:50 250 7 5.4-1.0
2015-Feb-01 08:20 260 7 5.4-1.0 Light freezing rain.
2015-Feb-01 07:50 260 9 2.2-1.0 Light freezing rain.
2015-Feb-01 07:20 260 7 2.7-1.0 Freezing rain.
2015-Feb-01 06:50 260 8 2.7-1.0 Light snow.
2015-Feb-01 06:20 270 8 2.4-1.0 Light snow.
2015-Feb-01 05:50 270 9 3.2-1.0 Light snow.
2015-Feb-01 05:20 270 8 3.2-1.0 Mist.
2015-Feb-01 04:50 270 7 4.3-1.0 Mist.
2015-Feb-01 04:20 270 8 5.4-1.0 Light freezing drizzle.
2015-Feb-01 03:50 270 7 3.2-1.0 Light freezing rain.
2015-Feb-01 03:20 260 7 3.2-0.0 Freezing drizzle.
2015-Feb-01 02:50 270 7 4.3-0.0 Freezing drizzle.
2015-Feb-01 02:20 270 6 4.9-0.0 Freezing drizzle.
2015-Feb-01 01:50 280 7 3.8-0.0 Light freezing rain.
2015-Feb-01 01:20 280 6 2.5-0.0 Light freezing rain.
2015-Feb-01 00:50 270 7 2.7-0.0 Light freezing rain.
2015-Feb-01 00:20 280 7 2.4-0.0 Light freezing rain.
2015-Jan-31 23:50 280 7 2.6-0.0 Light snow.
2015-Jan-31 23:20 280 8 1.6-0.0 Snow.
2015-Jan-31 22:50 280 8 1.3-0.0 Snow.
2015-Jan-31 22:20 280 8 1.3-0.0 Snow.
2015-Jan-31 21:50 280 8 1.2-0.0 Snow.
2015-Jan-31 21:20 280 7 1.3-0.0 Snow.
2015-Jan-31 20:50 280 7 1.9-0.0 Snow rain.
2015-Jan-31 20:20 290 7 1.6-0.0 Snow.
2015-Jan-31 19:50 290 6 1.9-0.0 Snow.
2015-Jan-31 19:20 280 6 2.7-0.0 Light snow.
2015-Jan-31 18:50 280 5 5.4-0.0 Light snow.
2015-Jan-31 18:20 290 5 5.4-0.0 Light snow.
2015-Jan-31 17:50 310 4 5.4-0.0
2015-Jan-31 17:20 320 4 5.4-0.0
2015-Jan-31 16:50 310 4 5.4-0.0
2015-Jan-31 16:20 320 4 5.4-0.0
2015-Jan-31 15:50 320 4 5.4-0.0
2015-Jan-31 15:20 290 4 5.4-0.0
2015-Jan-31 14:50 300 4 5.4-0.0
2015-Jan-31 14:20 290 4 5.4-0.0
2015-Jan-31 13:50 300 3 5.4-0.0
2015-Jan-31 13:20 300 4 5.4-0.0
2015-Jan-31 12:50 300 3 5.4-0.0
2015-Jan-31 12:20 340 3 5.4-0.0
2015-Jan-31 11:50 330 3 5.4-0.0
2015-Jan-31 11:20 310 4 5.4-0.0
2015-Jan-31 10:50 310 3 5.4-0.0
2015-Jan-31 10:20 330 3 5.4-0.0
2015-Jan-31 09:50 360 5 5.4-0.0
2015-Jan-31 09:20 350 4 5.4-0.0
2015-Jan-31 08:50 330 4 5.4-1.0
2015-Jan-31 08:20 330 3 5.4-1.0
2015-Jan-31 07:50 4.9-1.0 Mist.
2015-Jan-31 07:20 2.7-2.0 Light freezing rain.
2015-Jan-31 06:50 290 3 1.9-2.0 Light freezing rain.
2015-Jan-31 06:20 300 3 2.0-2.0 Freezing rain.
2015-Jan-31 05:50 290 3 2.2-1.0 Light freezing rain.
2015-Jan-31 05:20 310 3 1.6-1.0 Light freezing rain.
2015-Jan-31 04:50 340 4 5.4-1.0
2015-Jan-31 04:20 360 5 5.4-1.0
2015-Jan-31 03:50 360 5 5.4-1.0
2015-Jan-31 03:20 020 6 5.4-1.0
2015-Jan-31 02:50 360 6 4.9-1.0 Light freezing drizzle.
2015-Jan-31 02:20 340 5 4.3-1.0 Freezing drizzle.
2015-Jan-31 01:50 360 4 4.9-0.0 Freezing drizzle.
2015-Jan-31 01:20 010 5 5.4-0.0 Light freezing drizzle.
2015-Jan-31 00:50 010 3 5.4-1.0 Light freezing drizzle.
2015-Jan-31 00:20 020 3 5.4-1.0
2015-Jan-30 23:50 030 5 5.4-1.0
2015-Jan-30 23:20 030 5 5.4-1.0
2015-Jan-30 22:50 030 4 5.4-1.0
2015-Jan-30 22:20 010 4 3.8-1.0
2015-Jan-30 21:50 010 3 1.2-1.0 Light snow.
2015-Jan-30 21:20 030 3 2.2-1.0 Light snow.
2015-Jan-30 20:50 030 3 3.2-0.0 Light snow.
2015-Jan-30 20:20 040 3 3.2-0.0 Light snow.
2015-Jan-30 19:50 040 3 2.2-0.0 Light snow.
2015-Jan-30 19:20 060 3 2.2-0.0 Light snow.
2015-Jan-30 18:50 2.7-0.0 Light snow.
2015-Jan-30 18:20 050 3 2.2-0.0 Light snow.
2015-Jan-30 17:50 050 3 2.2-0.0 Light snow.
2015-Jan-30 17:20 060 3 1.6-0.0 Snow.
2015-Jan-30 16:50 2.2-0.0 Light snow.
2015-Jan-30 16:20 070 3 4.3-0.0 Light snow.